Dewpoint
70 70 70 70 70 70 69 69 69 68 69 71 71 72 72 73 73 73 73 73 74 75 75 75 75 75 75 75 75 75 74 74 73 72 70 69 67 67 67 66 66 66
70 70 71 70 70 70 69 69 69 69 69 70 71 72 72 73 73 73 73 73 74 74 75 75 75 75 75 75 75 74 74 73 73 73 71 70 68 67 67 66 66 66
70 70 70 69 69 70 70 69 69 70 69 69 71 71 72 73 72 73 73 73 73 74 74 75 75 75 75 75 75 74 74 73 73 73 72 70 69 68 67 67 67 67
69 69 69 70 69 69 70 70 69 70 70 70 70 71 72 73 73 73 73 74 73 73 74 74 75 75 75 75 74 74 74 74 73 73 72 72 70 69 68 68 68 67
69 69 69 69 70 69 70 71 69 69 70 70 70 71 72 72 72 72 73 73 73 73 74 74 74 74 75 75 74 74 74 74 73 73 72 72 71 70 70 69 68 68
70 70 70 69 70 69 69 70 71 70 70 70 70 71 72 72 72 72 72 72 73 73 73 73 74 74 74 74 74 74 74 74 73 73 72 72 72 71 70 69 69 68
69 69 69 69 69 70 69 69 70 71 70 70 71 71 72 72 72 72 72 72 73 73 73 73 73 74 74 74 74 74 73 74 74 73 73 72 72 72 71 70 69 69
69 69 69 69 69 69 70 69 69 71 71 71 71 71 72 72 72 72 72 72 72 73 73 73 73 73 74 74 74 73 73 73 73 73 73 73 72 72 72 72 70 69
69 69 69 69 69 69 69 70 70 70 71 71 71 71 72 72 72 72 73 72 72 72 73 73 73 73 73 74 73 73 73 73 73 73 73 73 72 72 72 72 71 71
69 69 69 69 69 69 69 70 70 70 71 71 71 71 71 72 73 73 73 73 72 72 72 73 73 73 73 74 73 73 73 73 73 73 73 73 73 73 73 72 72 71
69 69 69 69 69 69 69 70 70 70 71 71 72 71 71 71 72 73 73 73 73 72 72 72 73 73 73 73 73 74 73 73 73 73 73 73 73 73 74 73 72 72
69 69 69 69 69 69 69 69 70 70 70 71 72 72 71 71 71 72 73 73 73 73 72 72 73 73 73 73 73 73 73 73 73 73 73 73 73 73 73 73 73 72
69 69 69 69 69 69 69 69 69 70 70 70 71 72 72 71 71 71 72 72 73 73 73 73 73 73 73 73 73 73 73 73 73 73 73 73 73 73 73 73 73 73
70 69 69 70 70 70 70 70 70 69 70 70 70 71 72 72 71 71 71 72 72 72 72 73 73 73 73 73 73 73 73 73 73 73 73 73 73 73 73 73 73 73
70 70 70 70 70 70 70 70 70 70 70 70 70 70 71 72 72 72 71 71 72 72 72 72 72 72 73 73 73 73 73 73 73 73 73 73 73 73 73 74 74 74
71 71 71 71 71 70 71 70 70 70 70 70 70 70 70 70 71 72 72 72 72 72 72 72 72 72 70 67 68 73 73 73 73 73 73 73 73 73 73 73 73 74
71 71 71 71 71 71 71 71 71 71 70 70 70 70 70 69 70 70 71 72 72 72 71 72 72 72 67 64 64 66 72 73 73 73 73 73 73 73 73 73 73 73
71 71 71 71 71 71 71 71 71 71 71 70 70 70 70 69 69 69 69 70 71 72 72 72 72 68 65 64 63 63 66 73 73 73 73 73 73 73 73 73 73 73
71 71 71 71 71 71 71 71 71 71 70 70 70 70 70 70 69 69 69 69 69 69 70 71 72 66 64 63 63 62 62 66 72 73 73 73 73 73 73 73 73 73
71 71 71 71 71 71 71 71 71 70 70 70 70 70 70 70 69 69 69 69 68 68 69 69 70 67 63 61 61 62 62 63 70 72 72 73 73 73 73 73 73 73
71 71 71 71 71 71 71 71 71 71 70 70 70 69 69 69 69 69 69 69 69 69 68 68 69 64 62 60 60 60 61 62 69 71 72 72 73 73 73 73 73 73
71 71 71 71 71 71 71 71 71 71 70 70 70 70 69 69 69 69 69 69 69 68 68 68 68 63 61 60 59 59 60 66 69 71 71 72 72 73 73 73 73 73
72 72 72 71 71 71 71 71 71 71 71 70 70 69 69 69 68 68 69 69 69 69 68 68 68 65 60 58 58 58 59 67 69 70 71 72 72 72 73 73 73 73
73 72 72 72 72 71 71 71 71 71 71 71 70 69 69 68 68 68 68 68 68 68 68 68 68 65 59 57 57 57 62 68 69 70 70 71 72 72 73 73 73 72
73 73 73 72 72 72 71 71 71 71 71 71 70 70 69 69 69 68 68 68 68 68 67 68 68 66 59 57 56 56 61 68 70 70 70 71 71 71 72 73 73 73
73 73 73 73 72 72 72 72 71 71 71 71 70 70 70 69 69 68 68 68 68 68 69 68 68 68 67 57 56 55 58 68 70 70 70 70 71 71 71 72 72 73